Regional Weather Roundup
Issued by NWS

Home | Current Version | Previous Version | Text Only | Print | Product List | Glossary Off
Versions: 1 2 3 4 5 6 7 8 9 10 11 12 13 14 15 16 17 18 19 20 21 22 23 24 25 26 27 28 29 30 31 32 33 34 35 36 37 38 39 40 41 42 43 44 45 46 47 48 49 50

000
ASUS43 KLMK 051210
RWRKY
KENTUCKY REGIONAL WEATHER ROUNDUP
NATIONAL WEATHER SERVICE LOUISVILLE KY
800 AM EDT SUN JUL 05 2015

NOTE "FAIR" INDICATES FEW OR NO CLOUDS BELOW 12,000 FEET
WITH NO SIGNIFICANT WEATHER AND/OR OBSTRUCTIONS TO VISIBILITY.

KYZ001>023-026-027-061>063-070>075-051300-
WESTERN AND SOUTH CENTRAL KENTUCKY

CITY           SKY/WX    TMP DP  RH WIND       PRES   REMARKS
PADUCAH        FOG       66  65  96 CALM      30.06S VSB 1/4
HENDERSON      CLOUDY    70  66  88 CALM      30.05S
OWENSBORO      FOG       71  70  97 CALM      30.07R VSB 1
HOPKINSVILLE   CLOUDY    70  69  97 W3        30.07R FOG
BOWLING GREEN  CLOUDY    72  69  90 CALM      30.06R THUNDER FOG
GLASGOW        RAIN      69  69 100 CALM      30.07R
$$

KYZ024-025-028>034-038-045-046-053-051300-
NORTH CENTRAL KENTUCKY

CITY           SKY/WX    TMP DP  RH WIND       PRES   REMARKS
LOUISVILLE/SDF CLOUDY    71  67  87 N5        30.07R FOG
LOUISVILLE/LOU CLOUDY    70  67  90 N3        30.08R FOG
FORT KNOX      CLOUDY    69  67  94 N7        30.06R FOG
$$

KYZ035>037-039>044-047>052-055>060-089>105-051300-
NORTHEAST KENTUCKY

CITY           SKY/WX    TMP DP  RH WIND       PRES   REMARKS
LEXINGTON      CLOUDY    70  64  81 NE7       30.09R
COVINGTON      CLOUDY    69  59  70 NE5       30.11R
FRANKFORT      CLOUDY    69  65  86 NE3       30.08R FOG
$$

KYZ054-064>069-076>088-106>120-051300-
SOUTHEAST KENTUCKY

CITY           SKY/WX    TMP DP  RH WIND       PRES   REMARKS
JACKSON        LGT RAIN  69  67  93 CALM      30.11R FOG
LONDON         LGT RAIN  68  64  87 NE3       30.09R
SOMERSET       CLOUDY    64  64 100 CALM      30.08S
MIDDLESBORO    DRIZZLE   67  67 100 CALM      30.09S
MONTICELLO     CLOUDY    69  69 100 CALM      30.10R
$$




USA.gov is the U.S. government's official web portal to all federal, state and local government web resources and services.